Time,TemperatureF,DewpointF,PressureIn,WindDirection,WindDirectionDegrees,WindSpeedMPH,WindSpeedGustMPH,Humidity,HourlyPrecipIn,Conditions,Clouds,dailyrainin,SoftwareType,DateUTC
2013-09-07 00:00:00,75.7,55.2,30.03,North,0,0.0,0.0,49,0.00,CLR,FEW,0.00,WeatherDisplay:10.37,2013-09-07 04:00:00,
2013-09-07 00:01:00,75.7,55.2,30.03,North,0,0.0,0.0,49,0.00,CLR,FEW,0.00,WeatherDisplay:10.37,2013-09-07 04:01:00,
2013-09-07 00:02:00,75.7,55.2,30.03,North,0,0.0,0.0,49,0.00,CLR,FEW,0.00,WeatherDisplay:10.37,2013-09-07 04:02:00,
2013-09-07 00:03:00,75.7,55.8,30.03,North,0,0.0,0.0,50,0.00,CLR,FEW,0.00,WeatherDisplay:10.37,2013-09-07 04:03:00,
2013-09-07 00:05:00,75.7,55.8,30.03,North,0,0.0,0.0,50,0.00,CLR,FEW,0.00,WeatherDisplay:10.37,2013-09-07 04:05:00,
2013-09-07 00:08:00,75.7,55.8,30.03,North,0,0.0,0.0,50,0.00,CLR,FEW,0.00,WeatherDisplay:10.37,2013-09-07 04:08:00,
2013-09-07 00:13:00,75.7,55.8,30.03,North,0,0.0,0.0,50,0.00,CLR,FEW,0.00,WeatherDisplay:10.37,2013-09-07 04:13:00,
2013-09-07 00:19:00,75.4,56.0,30.03,North,0,0.0,0.0,51,0.00,CLR,FEW,0.00,WeatherDisplay:10.37,2013-09-07 04:19:00,
2013-09-07 00:24:00,75.4,56.0,30.03,North,0,0.0,0.0,51,0.00,CLR,FEW,0.00,WeatherDisplay:10.37,2013-09-07 04:24:00,
2013-09-07 00:29:00,75.2,56.4,30.03,North,0,0.0,0.0,52,0.00,CLR,FEW,0.00,WeatherDisplay:10.37,2013-09-07 04:29:00,
2013-09-07 00:34:00,75.0,56.7,30.03,North,0,0.0,0.0,53,0.00,CLR,FEW,0.00,WeatherDisplay:10.37,2013-09-07 04:34:00,
2013-09-07 00:39:00,74.8,57.6,30.03,North,0,0.0,0.0,55,0.00,CLR,FEW,0.00,WeatherDisplay:10.37,2013-09-07 04:39:00,
2013-09-07 00:43:00,74.7,58.4,30.03,North,0,0.0,0.0,57,0.00,CLR,FEW,0.00,WeatherDisplay:10.37,2013-09-07 04:43:00,
2013-09-07 00:48:00,74.5,58.2,30.03,North,0,0.0,0.0,57,0.00,CLR,FEW,0.00,WeatherDisplay:10.37,2013-09-07 04:48:00,
2013-09-07 00:53:00,74.5,59.2,30.03,North,0,0.0,0.0,59,0.00,CLR,FEW,0.00,WeatherDisplay:10.37,2013-09-07 04:53:00,
2013-09-07 00:58:00,74.3,60.0,30.03,North,0,0.0,0.0,61,0.00,CLR,FEW,0.00,WeatherDisplay:10.37,2013-09-07 04:58:00,
2013-09-07 01:04:00,74.1,60.3,30.03,North,0,0.0,0.0,62,0.00,CLR,FEW,0.00,WeatherDisplay:10.37,2013-09-07 05:04:00,
2013-09-07 01:09:00,74.1,60.3,30.03,North,0,0.0,0.0,62,0.00,CLR,FEW,0.00,WeatherDisplay:10.37,2013-09-07 05:09:00,
2013-09-07 01:14:00,73.9,60.5,30.03,North,0,0.0,0.0,63,0.00,CLR,FEW,0.00,WeatherDisplay:10.37,2013-09-07 05:14:00,
2013-09-07 01:19:00,73.8,60.4,30.03,North,0,0.0,0.0,63,0.00,CLR,FEW,0.00,WeatherDisplay:10.37,2013-09-07 05:19:00,
2013-09-07 01:24:00,73.8,60.4,30.03,North,0,0.0,0.0,63,0.00,CLR,FEW,0.00,WeatherDisplay:10.37,2013-09-07 05:24:00,
2013-09-07 01:29:00,73.6,60.6,30.03,North,0,0.0,0.0,64,0.00,CLR,FEW,0.00,WeatherDisplay:10.37,2013-09-07 05:29:00,
2013-09-07 01:34:00,73.6,61.9,30.03,North,0,0.0,0.0,67,0.00,CLR,FEW,0.00,WeatherDisplay:10.37,2013-09-07 05:34:00,
2013-09-07 01:40:00,73.6,61.9,30.03,North,0,0.0,0.0,67,0.00,CLR,FEW,0.00,WeatherDisplay:10.37,2013-09-07 05:40:00,
2013-09-07 01:45:00,73.4,61.8,30.03,North,0,0.0,0.0,67,0.00,CLR,FEW,0.00,WeatherDisplay:10.37,2013-09-07 05:45:00,
2013-09-07 01:50:00,73.4,62.2,30.03,North,0,0.0,0.0,68,0.00,CLR,FEW,0.00,WeatherDisplay:10.37,2013-09-07 05:50:00,
2013-09-07 01:55:00,73.2,62.4,30.03,North,0,0.0,0.0,69,0.00,CLR,FEW,0.00,WeatherDisplay:10.37,2013-09-07 05:55:00,
2013-09-07 02:00:00,73.2,62.4,30.03,North,0,0.0,0.0,69,0.00,CLR,FEW,0.00,WeatherDisplay:10.37,2013-09-07 06:00:00,
2013-09-07 02:05:00,73.2,62.8,30.03,North,0,0.0,0.0,70,0.00,CLR,FEW,0.00,WeatherDisplay:10.37,2013-09-07 06:05:00,
2013-09-07 02:10:00,73.0,62.7,30.03,North,0,0.0,0.0,70,0.00,CLR,FEW,0.00,WeatherDisplay:10.37,2013-09-07 06:10:00,
2013-09-07 02:15:00,73.0,62.7,30.03,North,0,0.0,0.0,70,0.00,CLR,FEW,0.00,WeatherDisplay:10.37,2013-09-07 06:15:00,
2013-09-07 02:21:00,73.0,63.1,30.03,North,0,0.0,0.0,71,0.00,CLR,FEW,0.00,WeatherDisplay:10.37,2013-09-07 06:21:00,
2013-09-07 02:26:00,72.9,62.9,30.03,North,0,0.0,0.0,71,0.00,CLR,FEW,0.00,WeatherDisplay:10.37,2013-09-07 06:26:00,
2013-09-07 02:31:00,72.9,62.9,30.03,North,0,0.0,0.0,71,0.00,CLR,FEW,0.00,WeatherDisplay:10.37,2013-09-07 06:31:00,
2013-09-07 02:36:00,72.7,62.7,30.03,North,0,0.0,0.0,71,0.00,CLR,FEW,0.00,WeatherDisplay:10.37,2013-09-07 06:36:00,
2013-09-07 02:41:00,72.7,63.1,30.03,North,0,0.0,0.0,72,0.00,CLR,FEW,0.00,WeatherDisplay:10.37,2013-09-07 06:41:00,
2013-09-07 02:46:00,72.5,63.0,30.03,North,0,0.0,0.0,72,0.00,CLR,FEW,0.00,WeatherDisplay:10.37,2013-09-07 06:46:00,
2013-09-07 02:51:00,72.3,62.8,30.03,North,0,0.0,0.0,72,0.00,CLR,FEW,0.00,WeatherDisplay:10.37,2013-09-07 06:51:00,
2013-09-07 02:56:00,72.3,63.2,30.03,North,0,0.0,0.0,73,0.00,CLR,FEW,0.00,WeatherDisplay:10.37,2013-09-07 06:56:00,
2013-09-07 03:01:00,72.1,63.4,30.03,North,0,0.0,0.0,74,0.00,CLR,FEW,0.00,WeatherDisplay:10.37,2013-09-07 07:01:00,
2013-09-07 03:06:00,72.0,63.6,30.03,North,0,0.0,0.0,75,0.00,CLR,FEW,0.00,WeatherDisplay:10.37,2013-09-07 07:06:00,
2013-09-07 03:11:00,72.0,63.6,30.03,North,0,0.0,0.0,75,0.00,CLR,FEW,0.00,WeatherDisplay:10.37,2013-09-07 07:11:00,
2013-09-07 03:16:00,72.0,63.6,30.03,North,0,0.0,0.0,75,0.00,CLR,FEW,0.00,WeatherDisplay:10.37,2013-09-07 07:16:00,
2013-09-07 03:21:00,71.8,63.4,30.03,North,0,0.0,0.0,75,0.00,CLR,FEW,0.00,WeatherDisplay:10.37,2013-09-07 07:21:00,
2013-09-07 03:26:00,71.8,63.4,30.03,North,0,0.0,0.0,75,0.00,CLR,FEW,0.00,WeatherDisplay:10.37,2013-09-07 07:26:00,
2013-09-07 03:31:00,71.8,63.8,30.03,North,0,0.0,0.0,76,0.00,CLR,FEW,0.00,WeatherDisplay:10.37,2013-09-07 07:31:00,
2013-09-07 03:36:00,71.6,63.6,30.03,North,0,0.0,0.0,76,0.00,CLR,FEW,0.00,WeatherDisplay:10.37,2013-09-07 07:36:00,
2013-09-07 03:41:00,71.6,64.0,30.03,North,0,0.0,0.0,77,0.00,CLR,FEW,0.00,WeatherDisplay:10.37,2013-09-07 07:41:00,
2013-09-07 03:46:00,71.6,64.0,30.03,North,0,0.0,0.0,77,0.00,CLR,FEW,0.00,WeatherDisplay:10.37,2013-09-07 07:46:00,
2013-09-07 03:51:00,71.4,64.2,30.03,North,0,0.0,0.0,78,0.00,CLR,FEW,0.00,WeatherDisplay:10.37,2013-09-07 07:51:00,
2013-09-07 03:57:00,71.2,64.4,30.03,North,0,0.0,0.0,79,0.00,CLR,FEW,0.00,WeatherDisplay:10.37,2013-09-07 07:57:00,
2013-09-07 04:02:00,71.2,64.4,30.03,North,0,0.0,0.0,79,0.00,CLR,FEW,0.00,WeatherDisplay:10.37,2013-09-07 08:02:00,
2013-09-07 04:07:00,71.1,64.6,30.03,North,0,0.0,0.0,80,0.00,CLR,FEW,0.00,WeatherDisplay:10.37,2013-09-07 08:07:00,
2013-09-07 04:12:00,71.1,64.6,30.03,North,0,0.0,0.0,80,0.00,CLR,FEW,0.00,WeatherDisplay:10.37,2013-09-07 08:12:00,
2013-09-07 04:17:00,70.9,64.4,30.03,North,0,0.0,0.0,80,0.00,CLR,FEW,0.00,WeatherDisplay:10.37,2013-09-07 08:17:00,
2013-09-07 04:22:00,70.9,64.8,30.03,North,0,0.0,0.0,81,0.00,CLR,FEW,0.00,WeatherDisplay:10.37,2013-09-07 08:22:00,
2013-09-07 04:27:00,70.9,64.8,30.03,North,0,0.0,0.0,81,0.00,CLR,FEW,0.00,WeatherDisplay:10.37,2013-09-07 08:27:00,
2013-09-07 04:32:00,70.7,64.6,30.03,North,0,0.0,0.0,81,0.00,CLR,FEW,0.00,WeatherDisplay:10.37,2013-09-07 08:32:00,
2013-09-07 04:37:00,70.7,64.6,30.03,North,0,0.0,0.0,81,0.00,CLR,FEW,0.00,WeatherDisplay:10.37,2013-09-07 08:37:00,
2013-09-07 04:42:00,70.5,64.4,30.03,North,0,0.0,0.0,81,0.00,CLR,FEW,0.00,WeatherDisplay:10.37,2013-09-07 08:42:00,
2013-09-07 04:47:00,70.5,64.4,30.03,North,0,0.0,0.0,81,0.00,CLR,FEW,0.00,WeatherDisplay:10.37,2013-09-07 08:47:00,
2013-09-07 04:52:00,70.3,64.2,30.03,North,0,0.0,0.0,81,0.00,CLR,FEW,0.00,WeatherDisplay:10.37,2013-09-07 08:52:00,
2013-09-07 04:57:00,70.3,64.2,30.03,North,0,0.0,0.0,81,0.00,CLR,FEW,0.00,WeatherDisplay:10.37,2013-09-07 08:57:00,
2013-09-07 05:02:00,70.3,64.6,30.03,North,0,0.0,0.0,82,0.00,CLR,FEW,0.00,WeatherDisplay:10.37,2013-09-07 09:02:00,
2013-09-07 05:07:00,70.2,64.4,30.03,North,0,0.0,0.0,82,0.00,CLR,FEW,0.00,WeatherDisplay:10.37,2013-09-07 09:07:00,
2013-09-07 05:12:00,70.2,64.4,30.03,North,0,0.0,0.0,82,0.00,CLR,FEW,0.00,WeatherDisplay:10.37,2013-09-07 09:12:00,
2013-09-07 05:17:00,70.0,64.6,30.03,North,0,0.0,0.0,83,0.00,CLR,FEW,0.00,WeatherDisplay:10.37,2013-09-07 09:17:00,
2013-09-07 05:22:00,70.0,64.6,30.03,North,0,0.0,0.0,83,0.00,CLR,FEW,0.00,WeatherDisplay:10.37,2013-09-07 09:22:00,
2013-09-07 05:27:00,70.0,64.6,30.03,North,0,0.0,0.0,83,0.00,CLR,FEW,0.00,WeatherDisplay:10.37,2013-09-07 09:27:00,
2013-09-07 05:32:00,69.8,64.7,30.03,North,0,0.0,0.0,84,0.00,CLR,FEW,0.00,WeatherDisplay:10.37,2013-09-07 09:32:00,
2013-09-07 05:37:00,69.8,64.7,30.03,North,0,0.0,0.0,84,0.00,CLR,FEW,0.00,WeatherDisplay:10.37,2013-09-07 09:37:00,
2013-09-07 05:42:00,69.6,64.9,30.03,North,0,0.0,0.0,85,0.00,CLR,FEW,0.00,WeatherDisplay:10.37,2013-09-07 09:42:00,
2013-09-07 05:47:00,69.6,64.9,30.03,North,0,0.0,0.0,85,0.00,CLR,FEW,0.00,WeatherDisplay:10.37,2013-09-07 09:47:00,
2013-09-07 05:52:00,69.6,64.9,30.03,North,0,0.0,0.0,85,0.00,CLR,FEW,0.00,WeatherDisplay:10.37,2013-09-07 09:52:00,
2013-09-07 05:57:00,69.4,65.1,30.03,North,0,0.0,0.0,86,0.00,CLR,FEW,0.00,WeatherDisplay:10.37,2013-09-07 09:57:00,
2013-09-07 06:02:00,69.4,65.4,30.03,North,0,0.0,0.0,87,0.00,CLR,FEW,0.00,WeatherDisplay:10.37,2013-09-07 10:02:00,
2013-09-07 06:07:00,69.4,65.4,30.03,North,0,0.0,0.0,87,0.00,CLR,FEW,0.00,WeatherDisplay:10.37,2013-09-07 10:07:00,
2013-09-07 06:12:00,69.3,65.2,30.03,North,0,0.0,0.0,87,0.00,CLR,FEW,0.00,WeatherDisplay:10.37,2013-09-07 10:12:00,
2013-09-07 06:17:00,69.3,65.2,30.03,North,0,0.0,0.0,87,0.00,CLR,FEW,0.00,WeatherDisplay:10.37,2013-09-07 10:17:00,
2013-09-07 06:22:00,69.3,65.2,30.03,North,0,0.0,0.0,87,0.00,CLR,FEW,0.00,WeatherDisplay:10.37,2013-09-07 10:22:00,
2013-09-07 06:27:00,69.1,65.0,30.06,North,0,0.0,0.0,87,0.00,CLR,FEW,0.00,WeatherDisplay:10.37,2013-09-07 10:27:00,
2013-09-07 06:32:00,69.1,65.0,30.06,North,0,0.0,0.0,87,0.00,CLR,FEW,0.00,WeatherDisplay:10.37,2013-09-07 10:32:00,
2013-09-07 06:37:00,69.1,65.0,30.06,North,0,0.0,0.0,87,0.00,CLR,FEW,0.00,WeatherDisplay:10.37,2013-09-07 10:37:00,
2013-09-07 06:42:00,68.9,64.9,30.06,North,0,0.0,0.0,87,0.00,CLR,FEW,0.00,WeatherDisplay:10.37,2013-09-07 10:42:00,
2013-09-07 06:47:00,68.9,64.9,30.06,North,0,0.0,0.0,87,0.00,CLR,FEW,0.00,WeatherDisplay:10.37,2013-09-07 10:47:00,
2013-09-07 06:52:00,68.9,64.9,30.06,North,0,0.0,0.0,87,0.00,CLR,FEW,0.00,WeatherDisplay:10.37,2013-09-07 10:52:00,
2013-09-07 06:57:00,68.7,64.7,30.06,North,0,0.0,0.0,87,0.00,CLR,FEW,0.00,WeatherDisplay:10.37,2013-09-07 10:57:00,
2013-09-07 07:02:00,68.7,64.7,30.06,North,0,0.0,0.0,87,0.00,CLR,FEW,0.00,WeatherDisplay:10.37,2013-09-07 11:02:00,
2013-09-07 07:07:00,68.7,64.7,30.06,North,0,0.0,0.0,87,0.00,CLR,FEW,0.00,WeatherDisplay:10.37,2013-09-07 11:07:00,
2013-09-07 07:12:00,68.5,64.5,30.06,North,0,0.0,0.0,87,0.00,CLR,FEW,0.00,WeatherDisplay:10.37,2013-09-07 11:12:00,
2013-09-07 07:17:00,68.5,64.5,30.06,North,0,0.0,0.0,87,0.00,CLR,FEW,0.00,WeatherDisplay:10.37,2013-09-07 11:17:00,
2013-09-07 07:22:00,68.5,64.2,30.06,North,0,0.0,0.0,86,0.00,CLR,FEW,0.00,WeatherDisplay:10.37,2013-09-07 11:22:00,
2013-09-07 07:27:00,68.5,64.2,30.06,North,0,0.0,0.0,86,0.00,CLR,FEW,0.00,WeatherDisplay:10.37,2013-09-07 11:27:00,
2013-09-07 07:32:00,68.5,64.2,30.06,North,0,0.0,0.0,86,0.00,CLR,FEW,0.00,WeatherDisplay:10.37,2013-09-07 11:32:00,
2013-09-07 07:37:00,68.5,64.2,30.06,North,0,0.0,0.0,86,0.00,CLR,FEW,0.00,WeatherDisplay:10.37,2013-09-07 11:37:00,
2013-09-07 07:43:00,68.7,64.4,30.06,North,0,0.0,0.0,86,0.00,CLR,FEW,0.00,WeatherDisplay:10.37,2013-09-07 11:43:00,
2013-09-07 07:48:00,68.7,64.4,30.06,North,0,0.0,0.0,86,0.00,CLR,FEW,0.00,WeatherDisplay:10.37,2013-09-07 11:48:00,
2013-09-07 07:53:00,68.9,64.5,30.06,North,0,0.0,0.0,86,0.00,CLR,FEW,0.00,WeatherDisplay:10.37,2013-09-07 11:53:00,
2013-09-07 07:58:00,69.3,64.6,30.06,North,0,0.0,0.0,85,0.00,CLR,FEW,0.00,WeatherDisplay:10.37,2013-09-07 11:58:00,
2013-09-07 08:03:00,69.6,64.9,30.06,North,0,0.0,0.0,85,0.00,CLR,FEW,0.00,WeatherDisplay:10.37,2013-09-07 12:03:00,
2013-09-07 08:08:00,70.0,63.9,30.06,North,0,0.0,0.0,81,0.00,CLR,FEW,0.00,WeatherDisplay:10.37,2013-09-07 12:08:00,
2013-09-07 08:13:00,70.3,61.7,30.06,North,0,0.0,0.0,74,0.00,CLR,FEW,0.00,WeatherDisplay:10.37,2013-09-07 12:13:00,
2013-09-07 08:18:00,70.9,61.8,30.06,North,0,0.0,0.0,73,0.00,CLR,FEW,0.00,WeatherDisplay:10.37,2013-09-07 12:18:00,
2013-09-07 08:23:00,71.2,61.7,30.06,North,0,0.0,0.0,72,0.00,CLR,FEW,0.00,WeatherDisplay:10.37,2013-09-07 12:23:00,
2013-09-07 08:28:00,71.4,60.3,30.06,North,0,0.0,0.0,68,0.00,CLR,FEW,0.00,WeatherDisplay:10.37,2013-09-07 12:28:00,
2013-09-07 08:33:00,72.1,60.6,30.06,North,0,0.0,0.0,67,0.00,CLR,FEW,0.00,WeatherDisplay:10.37,2013-09-07 12:33:00,
2013-09-07 08:38:00,72.5,59.6,30.06,North,0,0.0,0.0,64,0.00,CLR,FEW,0.00,WeatherDisplay:10.37,2013-09-07 12:38:00,
2013-09-07 08:43:00,73.0,58.8,30.06,North,0,0.0,0.0,61,0.00,CLR,FEW,0.00,WeatherDisplay:10.37,2013-09-07 12:43:00,
2013-09-07 08:48:00,73.6,57.4,30.06,North,0,0.0,0.0,57,0.00,CLR,FEW,0.00,WeatherDisplay:10.37,2013-09-07 12:48:00,
2013-09-07 08:53:00,74.1,57.9,30.06,North,0,0.0,0.0,57,0.00,CLR,FEW,0.00,WeatherDisplay:10.37,2013-09-07 12:53:00,
2013-09-07 08:58:00,74.7,57.4,30.06,North,0,0.0,0.0,55,0.00,CLR,FEW,0.00,WeatherDisplay:10.37,2013-09-07 12:58:00,
2013-09-07 09:03:00,75.0,55.7,30.06,North,0,0.0,0.0,51,0.00,CLR,FEW,0.00,WeatherDisplay:10.37,2013-09-07 13:03:00,
2013-09-07 09:08:00,75.6,55.6,30.06,North,0,0.0,0.0,50,0.00,CLR,FEW,0.00,WeatherDisplay:10.37,2013-09-07 13:08:00,
2013-09-07 09:13:00,75.9,54.8,30.06,North,0,0.0,0.0,48,0.00,CLR,FEW,0.00,WeatherDisplay:10.37,2013-09-07 13:13:00,
2013-09-07 09:18:00,76.1,53.2,30.06,North,0,0.0,0.0,45,0.00,CLR,FEW,0.00,WeatherDisplay:10.37,2013-09-07 13:18:00,
2013-09-07 09:23:00,76.1,53.8,30.06,North,0,0.0,0.0,46,0.00,CLR,FEW,0.00,WeatherDisplay:10.37,2013-09-07 13:23:00,
2013-09-07 09:28:00,76.5,54.1,30.06,North,0,0.0,0.0,46,0.00,CLR,FEW,0.00,WeatherDisplay:10.37,2013-09-07 13:28:00,
2013-09-07 09:33:00,77.0,52.1,30.06,North,0,0.0,0.0,42,0.00,CLR,FEW,0.00,WeatherDisplay:10.37,2013-09-07 13:33:00,
2013-09-07 09:38:00,77.2,52.3,30.06,North,0,0.0,0.0,42,0.00,CLR,FEW,0.00,WeatherDisplay:10.37,2013-09-07 13:38:00,
2013-09-07 09:43:00,77.5,53.3,30.06,North,0,0.0,0.0,43,0.00,CLR,FEW,0.00,WeatherDisplay:10.37,2013-09-07 13:43:00,
2013-09-07 09:48:00,78.1,52.5,30.06,North,0,0.0,0.0,41,0.00,CLR,FEW,0.00,WeatherDisplay:10.37,2013-09-07 13:48:00,
2013-09-07 09:53:00,78.6,52.3,30.06,North,0,0.0,0.0,40,0.00,CLR,FEW,0.00,WeatherDisplay:10.37,2013-09-07 13:53:00,
2013-09-07 09:58:00,78.8,51.7,30.06,North,0,0.0,0.0,39,0.00,CLR,FEW,0.00,WeatherDisplay:10.37,2013-09-07 13:58:00,
2013-09-07 10:03:00,79.0,51.9,30.06,North,0,0.0,0.0,39,0.00,CLR,FEW,0.00,WeatherDisplay:10.37,2013-09-07 14:03:00,
2013-09-07 10:08:00,79.5,52.4,30.06,North,0,0.0,0.0,39,0.00,CLR,FEW,0.00,WeatherDisplay:10.37,2013-09-07 14:08:00,
2013-09-07 10:13:00,79.7,51.8,30.06,North,0,0.0,0.0,38,0.00,CLR,FEW,0.00,WeatherDisplay:10.37,2013-09-07 14:13:00,
2013-09-07 10:18:00,79.5,51.0,30.06,North,0,0.0,0.0,37,0.00,CLR,FEW,0.00,WeatherDisplay:10.37,2013-09-07 14:18:00,
2013-09-07 10:23:00,79.5,51.7,30.06,North,0,0.0,0.0,38,0.00,CLR,FEW,0.00,WeatherDisplay:10.37,2013-09-07 14:23:00,
2013-09-07 10:28:00,80.1,51.4,30.06,North,0,0.0,0.0,37,0.00,CLR,FEW,0.00,WeatherDisplay:10.37,2013-09-07 14:28:00,
2013-09-07 10:33:00,80.6,51.2,30.06,North,0,0.0,0.0,36,0.00,CLR,FEW,0.00,WeatherDisplay:10.37,2013-09-07 14:33:00,
2013-09-07 10:38:00,81.0,49.9,30.06,North,0,0.0,0.0,34,0.00,CLR,FEW,0.00,WeatherDisplay:10.37,2013-09-07 14:38:00,
2013-09-07 10:43:00,81.7,51.4,30.06,North,0,0.0,0.0,35,0.00,CLR,FEW,0.00,WeatherDisplay:10.37,2013-09-07 14:43:00,
2013-09-07 10:48:00,82.0,50.1,30.06,North,0,0.0,0.0,33,0.00,CLR,FEW,0.00,WeatherDisplay:10.37,2013-09-07 14:48:00,
2013-09-07 10:53:00,82.0,49.3,30.06,North,0,0.0,0.0,32,0.00,CLR,FEW,0.00,WeatherDisplay:10.37,2013-09-07 14:53:00,
2013-09-07 10:58:00,82.2,49.4,30.06,North,0,0.0,0.0,32,0.00,CLR,FEW,0.00,WeatherDisplay:10.37,2013-09-07 14:58:00,
2013-09-07 11:03:00,82.0,49.3,30.06,North,0,0.0,0.0,32,0.00,CLR,FEW,0.00,WeatherDisplay:10.37,2013-09-07 15:03:00,
2013-09-07 11:08:00,81.7,49.8,30.06,North,0,0.0,0.0,33,0.00,CLR,FEW,0.00,WeatherDisplay:10.37,2013-09-07 15:08:00,
2013-09-07 11:13:00,81.9,49.9,30.09,North,0,0.0,0.0,33,0.00,CLR,FEW,0.00,WeatherDisplay:10.37,2013-09-07 15:13:00,
2013-09-07 11:18:00,82.2,48.6,30.09,North,0,0.0,0.0,31,0.00,CLR,FEW,0.00,WeatherDisplay:10.37,2013-09-07 15:18:00,
2013-09-07 11:23:00,82.2,49.4,30.09,North,0,0.0,0.0,32,0.00,CLR,FEW,0.00,WeatherDisplay:10.37,2013-09-07 15:23:00,
2013-09-07 11:29:00,82.4,49.6,30.06,North,0,0.0,0.0,32,0.00,CLR,FEW,0.00,WeatherDisplay:10.37,2013-09-07 15:29:00,
2013-09-07 11:34:00,82.4,49.6,30.06,North,0,0.0,0.0,32,0.00,CLR,FEW,0.00,WeatherDisplay:10.37,2013-09-07 15:34:00,
2013-09-07 11:39:00,82.2,48.6,30.06,North,0,0.0,0.0,31,0.00,CLR,FEW,0.00,WeatherDisplay:10.37,2013-09-07 15:39:00,
2013-09-07 11:44:00,82.2,48.6,30.06,North,0,0.0,0.0,31,0.00,CLR,FEW,0.00,WeatherDisplay:10.37,2013-09-07 15:44:00,
2013-09-07 11:49:00,82.2,48.6,30.06,North,0,0.0,0.0,31,0.00,CLR,FEW,0.00,WeatherDisplay:10.37,2013-09-07 15:49:00,
2013-09-07 11:54:00,82.8,49.0,30.06,North,0,0.0,0.0,31,0.00,CLR,FEW,0.00,WeatherDisplay:10.37,2013-09-07 15:54:00,
2013-09-07 11:59:00,82.6,48.0,30.06,North,0,0.0,0.0,30,0.00,CLR,FEW,0.00,WeatherDisplay:10.37,2013-09-07 15:59:00,
2013-09-07 12:04:00,82.6,48.0,30.06,North,0,0.0,0.0,30,0.00,CLR,FEW,0.00,WeatherDisplay:10.37,2013-09-07 16:04:00,
2013-09-07 12:09:00,82.6,48.0,30.06,North,0,0.0,0.0,30,0.00,CLR,FEW,0.00,WeatherDisplay:10.37,2013-09-07 16:09:00,
2013-09-07 12:14:00,82.8,48.2,30.06,North,0,0.0,0.0,30,0.00,CLR,FEW,0.00,WeatherDisplay:10.37,2013-09-07 16:14:00,
2013-09-07 12:19:00,83.1,47.6,30.06,North,0,0.0,0.0,29,0.00,CLR,FEW,0.00,WeatherDisplay:10.37,2013-09-07 16:19:00,
2013-09-07 12:24:00,82.9,47.4,30.06,North,0,0.0,0.0,29,0.00,CLR,FEW,0.00,WeatherDisplay:10.37,2013-09-07 16:24:00,
2013-09-07 12:29:00,82.9,47.4,30.06,North,0,0.0,0.0,29,0.00,CLR,FEW,0.00,WeatherDisplay:10.37,2013-09-07 16:29:00,
2013-09-07 12:34:00,82.9,47.4,30.06,North,0,0.0,0.0,29,0.00,CLR,FEW,0.00,WeatherDisplay:10.37,2013-09-07 16:34:00,
2013-09-07 12:39:00,82.9,48.3,30.06,North,0,0.0,0.0,30,0.00,CLR,FEW,0.00,WeatherDisplay:10.37,2013-09-07 16:39:00,
2013-09-07 12:44:00,82.8,47.3,30.06,North,0,0.0,0.0,29,0.00,CLR,FEW,0.00,WeatherDisplay:10.37,2013-09-07 16:44:00,
2013-09-07 12:49:00,82.8,47.3,30.06,North,0,0.0,0.0,29,0.00,CLR,FEW,0.00,WeatherDisplay:10.37,2013-09-07 16:49:00,
2013-09-07 12:54:00,82.9,47.4,30.06,North,0,0.0,0.0,29,0.00,CLR,FEW,0.00,WeatherDisplay:10.37,2013-09-07 16:54:00,
2013-09-07 12:59:00,82.9,46.5,30.06,North,0,0.0,0.0,28,0.00,CLR,FEW,0.00,WeatherDisplay:10.37,2013-09-07 16:59:00,
2013-09-07 13:04:00,82.8,41.2,30.06,North,0,0.0,0.0,23,0.00,CLR,FEW,0.00,WeatherDisplay:10.37,2013-09-07 17:04:00,
2013-09-07 13:10:00,82.9,42.4,30.06,North,0,0.0,0.0,24,0.00,CLR,FEW,0.00,WeatherDisplay:10.37,2013-09-07 17:10:00,
2013-09-07 13:15:00,83.3,40.5,30.06,North,0,0.0,0.0,22,0.00,CLR,FEW,0.00,WeatherDisplay:10.37,2013-09-07 17:15:00,
2013-09-07 13:20:00,82.8,41.2,30.06,North,0,0.0,0.0,23,0.00,CLR,FEW,0.00,WeatherDisplay:10.37,2013-09-07 17:20:00,
2013-09-07 13:25:00,83.1,41.5,30.06,North,0,0.0,0.0,23,0.00,CLR,FEW,0.00,WeatherDisplay:10.37,2013-09-07 17:25:00,
2013-09-07 13:30:00,83.5,41.8,30.06,North,0,0.0,0.0,23,0.00,CLR,FEW,0.00,WeatherDisplay:10.37,2013-09-07 17:30:00,
2013-09-07 13:35:00,83.3,41.6,30.06,North,0,0.0,0.0,23,0.00,CLR,FEW,0.00,WeatherDisplay:10.37,2013-09-07 17:35:00,
2013-09-07 13:40:00,83.1,40.3,30.06,North,0,0.0,0.0,22,0.00,CLR,FEW,0.00,WeatherDisplay:10.37,2013-09-07 17:40:00,
2013-09-07 13:45:00,82.8,40.0,30.03,North,0,0.0,0.0,22,0.00,CLR,FEW,0.00,WeatherDisplay:10.37,2013-09-07 17:45:00,
2013-09-07 13:51:00,82.6,41.0,30.03,North,0,0.0,0.0,23,0.00,CLR,FEW,0.00,WeatherDisplay:10.37,2013-09-07 17:51:00,
2013-09-07 13:56:00,82.6,41.0,30.03,North,0,0.0,0.0,23,0.00,CLR,FEW,0.00,WeatherDisplay:10.37,2013-09-07 17:56:00,
2013-09-07 14:01:00,82.8,41.2,30.03,North,0,0.0,0.0,23,0.00,CLR,FEW,0.00,WeatherDisplay:10.37,2013-09-07 18:01:00,
2013-09-07 14:06:00,83.1,42.6,30.03,North,0,0.0,0.0,24,0.00,CLR,FEW,0.00,WeatherDisplay:10.37,2013-09-07 18:06:00,
2013-09-07 14:11:00,83.3,41.6,30.03,North,0,0.0,0.0,23,0.00,CLR,FEW,0.00,WeatherDisplay:10.37,2013-09-07 18:11:00,
2013-09-07 14:16:00,83.3,40.5,30.03,North,0,0.0,0.0,22,0.00,CLR,FEW,0.00,WeatherDisplay:10.37,2013-09-07 18:16:00,
2013-09-07 14:21:00,83.3,41.6,30.03,North,0,0.0,0.0,23,0.00,CLR,FEW,0.00,WeatherDisplay:10.37,2013-09-07 18:21:00,
2013-09-07 14:26:00,83.1,41.5,30.03,North,0,0.0,0.0,23,0.00,CLR,FEW,0.00,WeatherDisplay:10.37,2013-09-07 18:26:00,
2013-09-07 14:32:00,82.9,42.4,30.03,North,0,0.0,0.0,24,0.00,CLR,FEW,0.00,WeatherDisplay:10.37,2013-09-07 18:32:00,
2013-09-07 14:37:00,83.3,43.8,30.03,North,0,0.0,0.0,25,0.00,CLR,FEW,0.00,WeatherDisplay:10.37,2013-09-07 18:37:00,
2013-09-07 14:43:00,83.5,40.6,30.03,North,0,0.0,0.0,22,0.00,CLR,FEW,0.00,WeatherDisplay:10.37,2013-09-07 18:43:00,
2013-09-07 14:48:00,82.9,41.3,30.03,North,0,0.0,0.0,23,0.00,CLR,FEW,0.00,WeatherDisplay:10.37,2013-09-07 18:48:00,
2013-09-07 14:53:00,83.1,42.6,30.03,North,0,0.0,0.0,24,0.00,CLR,FEW,0.00,WeatherDisplay:10.37,2013-09-07 18:53:00,
2013-09-07 14:58:00,83.1,41.5,30.00,North,0,0.0,0.0,23,0.00,CLR,FEW,0.00,WeatherDisplay:10.37,2013-09-07 18:58:00,
2013-09-07 15:03:00,83.3,41.6,30.00,North,0,0.0,0.0,23,0.00,CLR,FEW,0.00,WeatherDisplay:10.37,2013-09-07 19:03:00,
2013-09-07 15:08:00,83.3,41.6,30.00,North,0,0.0,0.0,23,0.00,CLR,FEW,0.00,WeatherDisplay:10.37,2013-09-07 19:08:00,
2013-09-07 15:13:00,83.5,40.6,30.00,North,0,0.0,0.0,22,0.00,CLR,FEW,0.00,WeatherDisplay:10.37,2013-09-07 19:13:00,
2013-09-07 15:19:00,82.9,40.2,30.00,North,0,0.0,0.0,22,0.00,CLR,FEW,0.00,WeatherDisplay:10.37,2013-09-07 19:19:00,
2013-09-07 15:24:00,82.9,41.3,30.00,North,0,0.0,0.0,23,0.00,CLR,FEW,0.00,WeatherDisplay:10.37,2013-09-07 19:24:00,
2013-09-07 15:29:00,82.8,41.2,30.00,North,0,0.0,0.0,23,0.00,CLR,FEW,0.00,WeatherDisplay:10.37,2013-09-07 19:29:00,
2013-09-07 15:34:00,83.3,42.7,30.00,North,0,0.0,0.0,24,0.00,CLR,FEW,0.00,WeatherDisplay:10.37,2013-09-07 19:34:00,
2013-09-07 15:39:00,83.7,40.8,30.00,North,0,0.0,0.0,22,0.00,CLR,FEW,0.00,WeatherDisplay:10.37,2013-09-07 19:39:00,
2013-09-07 15:44:00,83.5,40.6,30.00,North,0,0.0,0.0,22,0.00,CLR,FEW,0.00,WeatherDisplay:10.37,2013-09-07 19:44:00,
2013-09-07 15:49:00,83.5,40.6,30.00,North,0,0.0,0.0,22,0.00,CLR,FEW,0.00,WeatherDisplay:10.37,2013-09-07 19:49:00,
2013-09-07 15:54:00,83.8,40.9,30.00,North,0,0.0,0.0,22,0.00,CLR,FEW,0.00,WeatherDisplay:10.37,2013-09-07 19:54:00,
2013-09-07 15:59:00,83.8,39.7,30.00,North,0,0.0,0.0,21,0.00,CLR,FEW,0.00,WeatherDisplay:10.37,2013-09-07 19:59:00,
2013-09-07 16:04:00,83.7,40.8,30.00,North,0,0.0,0.0,22,0.00,CLR,FEW,0.00,WeatherDisplay:10.37,2013-09-07 20:04:00,
2013-09-07 16:09:00,83.5,40.6,30.00,North,0,0.0,0.0,22,0.00,CLR,FEW,0.00,WeatherDisplay:10.37,2013-09-07 20:09:00,
2013-09-07 16:14:00,83.3,40.5,30.00,North,0,0.0,0.0,22,0.00,CLR,FEW,0.00,WeatherDisplay:10.37,2013-09-07 20:14:00,
2013-09-07 16:19:00,83.3,39.3,30.00,North,0,0.0,0.0,21,0.00,CLR,FEW,0.00,WeatherDisplay:10.37,2013-09-07 20:19:00,
2013-09-07 16:24:00,83.1,41.5,30.00,North,0,0.0,0.0,23,0.00,CLR,FEW,0.00,WeatherDisplay:10.37,2013-09-07 20:24:00,
2013-09-07 16:30:00,83.3,40.5,30.00,North,0,0.0,0.0,22,0.00,CLR,FEW,0.00,WeatherDisplay:10.37,2013-09-07 20:30:00,
2013-09-07 16:35:00,83.3,40.5,30.00,North,0,0.0,0.0,22,0.00,CLR,FEW,0.00,WeatherDisplay:10.37,2013-09-07 20:35:00,
2013-09-07 16:40:00,83.1,40.3,30.00,North,0,0.0,0.0,22,0.00,CLR,FEW,0.00,WeatherDisplay:10.37,2013-09-07 20:40:00,
2013-09-07 16:45:00,82.9,40.2,30.00,North,0,0.0,0.0,22,0.00,CLR,FEW,0.00,WeatherDisplay:10.37,2013-09-07 20:45:00,
2013-09-07 16:50:00,83.1,41.5,30.00,North,0,0.0,0.0,23,0.00,CLR,FEW,0.00,WeatherDisplay:10.37,2013-09-07 20:50:00,
2013-09-07 16:56:00,83.3,41.6,30.00,North,0,0.0,0.0,23,0.00,CLR,FEW,0.00,WeatherDisplay:10.37,2013-09-07 20:56:00,
2013-09-07 17:01:00,83.1,40.3,30.00,North,0,0.0,0.0,22,0.00,CLR,FEW,0.00,WeatherDisplay:10.37,2013-09-07 21:01:00,
2013-09-07 17:07:00,82.9,40.2,30.00,North,0,0.0,0.0,22,0.00,CLR,FEW,0.00,WeatherDisplay:10.37,2013-09-07 21:07:00,
2013-09-07 17:12:00,82.9,41.3,29.97,North,0,0.0,0.0,23,0.00,CLR,FEW,0.00,WeatherDisplay:10.37,2013-09-07 21:12:00,
2013-09-07 17:17:00,82.6,41.0,29.97,North,0,0.0,0.0,23,0.00,CLR,FEW,0.00,WeatherDisplay:10.37,2013-09-07 21:17:00,
2013-09-07 17:22:00,82.0,41.7,29.97,North,0,0.0,0.0,24,0.00,CLR,FEW,0.00,WeatherDisplay:10.37,2013-09-07 21:22:00,
2013-09-07 17:27:00,81.7,43.5,29.97,North,0,0.0,0.0,26,0.00,CLR,FEW,0.00,WeatherDisplay:10.37,2013-09-07 21:27:00,
2013-09-07 17:33:00,81.1,42.0,29.97,North,0,0.0,0.0,25,0.00,CLR,FEW,0.00,WeatherDisplay:10.37,2013-09-07 21:33:00,
2013-09-07 17:39:00,81.1,42.0,29.97,North,0,0.0,0.0,25,0.00,CLR,FEW,0.00,WeatherDisplay:10.37,2013-09-07 21:39:00,
2013-09-07 17:44:00,81.1,42.0,29.97,North,0,0.0,0.0,25,0.00,CLR,FEW,0.00,WeatherDisplay:10.37,2013-09-07 21:44:00,
2013-09-07 17:49:00,81.0,42.8,29.97,North,0,0.0,0.0,26,0.00,CLR,FEW,0.00,WeatherDisplay:10.37,2013-09-07 21:49:00,
2013-09-07 17:54:00,81.0,42.8,29.97,North,0,0.0,0.0,26,0.00,CLR,FEW,0.00,WeatherDisplay:10.37,2013-09-07 21:54:00,
2013-09-07 17:59:00,80.8,43.7,29.97,North,0,0.0,0.0,27,0.00,CLR,FEW,0.00,WeatherDisplay:10.37,2013-09-07 21:59:00,
2013-09-07 18:04:00,80.8,43.7,29.97,North,0,0.0,0.0,27,0.00,CLR,FEW,0.00,WeatherDisplay:10.37,2013-09-07 22:04:00,
2013-09-07 18:09:00,80.8,44.6,29.97,North,0,0.0,0.0,28,0.00,CLR,FEW,0.00,WeatherDisplay:10.37,2013-09-07 22:09:00,
2013-09-07 18:14:00,80.6,44.5,29.97,North,0,0.0,0.0,28,0.00,CLR,FEW,0.00,WeatherDisplay:10.37,2013-09-07 22:14:00,
2013-09-07 18:20:00,80.4,44.3,29.97,North,0,0.0,0.0,28,0.00,CLR,FEW,0.00,WeatherDisplay:10.37,2013-09-07 22:20:00,
2013-09-07 18:25:00,80.2,44.2,29.97,North,0,0.0,0.0,28,0.00,CLR,FEW,0.00,WeatherDisplay:10.37,2013-09-07 22:25:00,
2013-09-07 18:30:00,80.1,45.8,29.97,North,0,0.0,0.0,30,0.00,CLR,FEW,0.00,WeatherDisplay:10.37,2013-09-07 22:30:00,
2013-09-07 18:35:00,80.1,45.8,29.97,North,0,0.0,0.0,30,0.00,CLR,FEW,0.00,WeatherDisplay:10.37,2013-09-07 22:35:00,
2013-09-07 18:40:00,79.9,45.7,29.97,North,0,0.0,0.0,30,0.00,CLR,FEW,0.00,WeatherDisplay:10.37,2013-09-07 22:40:00,
2013-09-07 18:45:00,79.7,45.5,29.97,North,0,0.0,0.0,30,0.00,CLR,FEW,0.00,WeatherDisplay:10.37,2013-09-07 22:45:00,
2013-09-07 18:51:00,79.7,45.5,29.97,North,0,0.0,0.0,30,0.00,CLR,FEW,0.00,WeatherDisplay:10.37,2013-09-07 22:51:00,
2013-09-07 18:56:00,79.5,45.4,29.97,North,0,0.0,0.0,30,0.00,CLR,FEW,0.00,WeatherDisplay:10.37,2013-09-07 22:56:00,
2013-09-07 19:01:00,79.3,45.2,29.97,North,0,0.0,0.0,30,0.00,CLR,FEW,0.00,WeatherDisplay:10.37,2013-09-07 23:01:00,
2013-09-07 19:06:00,79.3,46.1,29.97,North,0,0.0,0.0,31,0.00,CLR,FEW,0.00,WeatherDisplay:10.37,2013-09-07 23:06:00,
2013-09-07 19:12:00,79.2,45.9,29.97,North,0,0.0,0.0,31,0.00,CLR,FEW,0.00,WeatherDisplay:10.37,2013-09-07 23:12:00,
2013-09-07 19:17:00,79.0,45.8,29.97,North,0,0.0,0.0,31,0.00,CLR,FEW,0.00,WeatherDisplay:10.37,2013-09-07 23:17:00,
2013-09-07 19:22:00,78.8,45.6,29.97,North,0,0.0,0.0,31,0.00,CLR,FEW,0.00,WeatherDisplay:10.37,2013-09-07 23:22:00,
2013-09-07 19:27:00,78.4,45.3,29.97,North,0,0.0,0.0,31,0.00,CLR,FEW,0.00,WeatherDisplay:10.37,2013-09-07 23:27:00,
2013-09-07 19:32:00,78.4,45.3,29.97,North,0,0.0,0.0,31,0.00,CLR,FEW,0.00,WeatherDisplay:10.37,2013-09-07 23:32:00,
2013-09-07 19:37:00,78.1,45.0,29.97,North,0,0.0,0.0,31,0.00,CLR,FEW,0.00,WeatherDisplay:10.37,2013-09-07 23:37:00,
2013-09-07 19:42:00,77.9,44.8,29.97,North,0,0.0,0.0,31,0.00,CLR,FEW,0.00,WeatherDisplay:10.37,2013-09-07 23:42:00,
2013-09-07 19:47:00,77.5,45.3,29.97,North,0,0.0,0.0,32,0.00,CLR,FEW,0.00,WeatherDisplay:10.37,2013-09-07 23:47:00,
2013-09-07 19:53:00,77.4,45.2,29.97,North,0,0.0,0.0,32,0.00,CLR,FEW,0.00,WeatherDisplay:10.37,2013-09-07 23:53:00,
2013-09-07 19:58:00,77.0,44.9,29.97,North,0,0.0,0.0,32,0.00,CLR,FEW,0.00,WeatherDisplay:10.37,2013-09-07 23:58:00,
2013-09-07 20:03:00,76.6,45.4,29.97,North,0,0.0,0.0,33,0.00,CLR,FEW,0.00,WeatherDisplay:10.37,2013-09-08 00:03:00,
2013-09-07 20:08:00,76.5,45.2,29.97,North,0,0.0,0.0,33,0.00,CLR,FEW,0.00,WeatherDisplay:10.37,2013-09-08 00:08:00,
2013-09-07 20:13:00,76.3,45.8,29.97,North,0,0.0,0.0,34,0.00,CLR,FEW,0.00,WeatherDisplay:10.37,2013-09-08 00:13:00,
2013-09-07 20:18:00,76.1,45.7,29.97,North,0,0.0,0.0,34,0.00,CLR,FEW,0.00,WeatherDisplay:10.37,2013-09-08 00:18:00,
2013-09-07 20:23:00,75.9,46.3,29.97,North,0,0.0,0.0,35,0.00,CLR,FEW,0.00,WeatherDisplay:10.37,2013-09-08 00:23:00,
2013-09-07 20:28:00,75.7,46.1,29.97,North,0,0.0,0.0,35,0.00,CLR,FEW,0.00,WeatherDisplay:10.37,2013-09-08 00:28:00,
2013-09-07 20:33:00,75.6,46.0,29.97,North,0,0.0,0.0,35,0.00,CLR,FEW,0.00,WeatherDisplay:10.37,2013-09-08 00:33:00,
2013-09-07 20:38:00,75.4,46.6,29.97,North,0,0.0,0.0,36,0.00,CLR,FEW,0.00,WeatherDisplay:10.37,2013-09-08 00:38:00,
2013-09-07 20:43:00,75.4,46.6,29.97,North,0,0.0,0.0,36,0.00,CLR,FEW,0.00,WeatherDisplay:10.37,2013-09-08 00:43:00,
2013-09-07 20:49:00,75.0,47.0,29.97,North,0,0.0,0.0,37,0.00,CLR,FEW,0.00,WeatherDisplay:10.37,2013-09-08 00:49:00,
2013-09-07 20:54:00,74.8,46.8,29.97,North,0,0.0,0.0,37,0.00,CLR,FEW,0.00,WeatherDisplay:10.37,2013-09-08 00:54:00,
2013-09-07 20:59:00,74.7,47.4,29.97,North,0,0.0,0.0,38,0.00,CLR,FEW,0.00,WeatherDisplay:10.37,2013-09-08 00:59:00,
2013-09-07 21:05:00,74.5,47.2,29.97,North,0,0.0,0.0,38,0.00,CLR,FEW,0.00,WeatherDisplay:10.37,2013-09-08 01:05:00,
2013-09-07 21:10:00,74.3,47.7,29.97,North,0,0.0,0.0,39,0.00,CLR,FEW,0.00,WeatherDisplay:10.37,2013-09-08 01:10:00,
2013-09-07 21:15:00,74.1,48.9,30.00,North,0,0.0,0.0,41,0.00,CLR,FEW,0.00,WeatherDisplay:10.37,2013-09-08 01:15:00,
2013-09-07 21:20:00,73.8,48.6,30.00,North,0,0.0,0.0,41,0.00,CLR,FEW,0.00,WeatherDisplay:10.37,2013-09-08 01:20:00,
2013-09-07 21:25:00,73.8,49.9,30.00,North,0,0.0,0.0,43,0.00,CLR,FEW,0.00,WeatherDisplay:10.37,2013-09-08 01:25:00,
2013-09-07 21:30:00,73.6,50.9,30.00,North,0,0.0,0.0,45,0.00,CLR,FEW,0.00,WeatherDisplay:10.37,2013-09-08 01:30:00,
2013-09-07 21:35:00,73.4,50.8,30.00,North,0,0.0,0.0,45,0.00,CLR,FEW,0.00,WeatherDisplay:10.37,2013-09-08 01:35:00,
2013-09-07 21:40:00,73.4,51.4,30.00,North,0,0.0,0.0,46,0.00,CLR,FEW,0.00,WeatherDisplay:10.37,2013-09-08 01:40:00,
2013-09-07 21:46:00,73.2,51.8,30.00,North,0,0.0,0.0,47,0.00,CLR,FEW,0.00,WeatherDisplay:10.37,2013-09-08 01:46:00,
2013-09-07 21:51:00,73.0,52.2,30.00,North,0,0.0,0.0,48,0.00,CLR,FEW,0.00,WeatherDisplay:10.37,2013-09-08 01:51:00,
2013-09-07 21:56:00,73.0,52.7,30.00,North,0,0.0,0.0,49,0.00,CLR,FEW,0.00,WeatherDisplay:10.37,2013-09-08 01:56:00,
2013-09-07 22:01:00,72.9,52.6,30.00,North,0,0.0,0.0,49,0.00,CLR,FEW,0.00,WeatherDisplay:10.37,2013-09-08 02:01:00,
2013-09-07 22:06:00,72.7,53.0,30.00,North,0,0.0,0.0,50,0.00,CLR,FEW,0.00,WeatherDisplay:10.37,2013-09-08 02:06:00,
2013-09-07 22:12:00,72.7,53.5,30.00,North,0,0.0,0.0,51,0.00,CLR,FEW,0.00,WeatherDisplay:10.37,2013-09-08 02:12:00,
2013-09-07 22:17:00,72.5,54.4,30.00,North,0,0.0,0.0,53,0.00,CLR,FEW,0.00,WeatherDisplay:10.37,2013-09-08 02:17:00,
2013-09-07 22:22:00,72.5,54.4,30.00,North,0,0.0,0.0,53,0.00,CLR,FEW,0.00,WeatherDisplay:10.37,2013-09-08 02:22:00,
2013-09-07 22:27:00,72.3,54.7,30.00,North,0,0.0,0.0,54,0.00,CLR,FEW,0.00,WeatherDisplay:10.37,2013-09-08 02:27:00,
2013-09-07 22:32:00,72.3,55.2,30.00,North,0,0.0,0.0,55,0.00,CLR,FEW,0.00,WeatherDisplay:10.37,2013-09-08 02:32:00,
2013-09-07 22:37:00,72.3,55.7,30.00,North,0,0.0,0.0,56,0.00,CLR,FEW,0.00,WeatherDisplay:10.37,2013-09-08 02:37:00,
2013-09-07 22:42:00,72.1,55.6,30.00,North,0,0.0,0.0,56,0.00,CLR,FEW,0.00,WeatherDisplay:10.37,2013-09-08 02:42:00,
2013-09-07 22:48:00,72.1,56.1,30.00,North,0,0.0,0.0,57,0.00,CLR,FEW,0.00,WeatherDisplay:10.37,2013-09-08 02:48:00,
2013-09-07 22:54:00,72.0,55.9,30.00,North,0,0.0,0.0,57,0.00,CLR,FEW,0.00,WeatherDisplay:10.37,2013-09-08 02:54:00,
2013-09-07 23:00:00,72.0,56.4,30.00,North,0,0.0,0.0,58,0.00,CLR,FEW,0.00,WeatherDisplay:10.37,2013-09-08 03:00:00,
2013-09-07 23:05:00,72.0,56.8,30.00,North,0,0.0,0.0,59,0.00,CLR,FEW,0.00,WeatherDisplay:10.37,2013-09-08 03:05:00,
2013-09-07 23:10:00,72.0,57.3,30.00,North,0,0.0,0.0,60,0.00,CLR,FEW,0.00,WeatherDisplay:10.37,2013-09-08 03:10:00,
2013-09-07 23:16:00,72.0,57.3,30.00,North,0,0.0,0.0,60,0.00,CLR,FEW,0.00,WeatherDisplay:10.37,2013-09-08 03:16:00,
2013-09-07 23:22:00,72.0,57.8,30.00,North,0,0.0,0.0,61,0.00,CLR,FEW,0.00,WeatherDisplay:10.37,2013-09-08 03:22:00,
2013-09-07 23:27:00,72.0,58.2,30.00,North,0,0.0,0.0,62,0.00,CLR,FEW,0.00,WeatherDisplay:10.37,2013-09-08 03:27:00,
2013-09-07 23:32:00,72.0,58.2,30.00,North,0,0.0,0.0,62,0.00,CLR,FEW,0.00,WeatherDisplay:10.37,2013-09-08 03:32:00,
2013-09-07 23:37:00,72.1,58.4,30.00,North,0,0.0,0.0,62,0.00,CLR,FEW,0.00,WeatherDisplay:10.37,2013-09-08 03:37:00,
2013-09-07 23:42:00,72.5,58.3,29.97,North,0,0.0,0.0,61,0.00,CLR,FEW,0.00,WeatherDisplay:10.37,2013-09-08 03:42:00,
2013-09-07 23:47:00,72.9,58.2,29.97,North,0,0.0,0.0,60,0.00,CLR,FEW,0.00,WeatherDisplay:10.37,2013-09-08 03:47:00,
2013-09-07 23:52:00,73.0,57.9,29.97,North,0,0.0,0.0,59,0.00,CLR,FEW,0.00,WeatherDisplay:10.37,2013-09-08 03:52:00,
2013-09-07 23:57:00,73.4,56.2,29.97,North,0,0.0,0.0,55,0.00,CLR,FEW,0.00,WeatherDisplay:10.37,2013-09-08 03:57:00,